Location: Unspecified
(0.0000°N, 0.0000°E)
Time: 22:58:12
(UTC+00:00)

Vanguard 2 - Pass Details

Date: 04 October 2020
Orbit: 554 x 2937 km, 32.9° (Epoch: 28 October)

Event Time Altitude Azimuth Distance (km) Brightness Sun altitude
Rises 01:36:47 0° 256° (WSW) 6,696 - -62.6°
Reaches altitude 10° 01:42:14 10° 265° (W) 5,491 - -61.3°
Maximum altitude 01:55:30 33° 322° (NW) 3,175 - -58.0°
Drops below altitude 10° 02:04:46 10° 22° (NNE) 3,801 - -55.7°
Exits shadow 02:06:41 - 29° (NNE) 4,202 11.4 -55.3°
Sets 02:07:49 0° 33° (NNE) 4,463 11.6 -55.0°
